Simultaneous Nadir Overpasses (SNOs) Predictions

Prediction of SNOs between TERRA and METOP-C Satellite Orbit:

Table of predicted SNOs for the next 14.0 days since TLE Epoch: 2/15/2020
Index Date (TERRA) Time (TERRA) Lat,Lon (TERRA) SZA (TERRA ) Date (METOP-C) Time (METOP-C) Lat,Lon (METOP-C) SZA (METOP-C ) Distance(km) Time Diff (sec)
1 02/17/2020 14:30:59 81.28, 8.85 95.57 02/17/2020 14:29:59 81.27, 8.77 95.54 1.34 60
2 02/17/2020 15:20:26 -81.27, 176.45 84.45 02/17/2020 15:20:40 -81.28, 176.36 84.45 1.57 14
3 02/20/2020 10:05:17 81.27, 75.11 94.56 02/20/2020 10:04:14 81.27, 75.20 94.55 1.55 63
4 02/20/2020 10:54:43 -81.29,-116.88 85.40 02/20/2020 10:54:54 -81.28,-116.83 85.39 1.15 11
5 02/23/2020 05:39:35 81.28, 141.72 93.58 02/23/2020 05:38:30 81.27, 141.62 93.54 1.76 65
6 02/23/2020 06:29:02 -81.28, -50.62 86.43 02/23/2020 06:29:11 -81.28, -50.79 86.45 2.84 9
7 02/26/2020 01:13:54 81.26,-152.07 92.53 02/26/2020 01:12:46 81.27,-151.94 92.52 2.31 68
8 02/26/2020 02:03:21 -81.27, 15.61 87.48 02/26/2020 02:03:27 -81.28, 15.63 87.47 0.94 6
9 02/28/2020 20:48:11 81.27, -85.52 91.51 02/28/2020 20:47:01 81.27, -85.51 91.48 0.27 70




NCC Satellite Simultaneous Nadir Overpasses (SNOs) Prediction Service
